Weather History for Defiance, OH

Change the Weather History Date:

Friday, December 20, 2013

  Actual Average Record
Temperature  
Mean Temperature 48 °F -  
Max Temperature 55 °F 35 °F 57 °F (1957)
Min Temperature 41 °F 20 °F -9 °F (1963)
Degree Days  
Heating Degree Days 17    
Moisture  
Dew Point 45 °F    
Average Humidity 90    
Maximum Humidity 94    
Minimum Humidity 73    
Precipitation  
Precipitation 0.15 in - - ()
Sea Level Pressure  
Sea Level Pressure 29.78 in    
Wind  
Wind Speed 8 mph (SSW)    
Max Wind Speed 15 mph    
Max Gust Speed 21 mph    
Visibility 3 miles    
Events Rain    
Averages and records for this station are not official NWS values.
T = Trace of Precipitation, MM = Missing Value Source: NWS Daily Summary

Daily Weather History Graph

Daily Weather History Graph

Search for Another Location

Airport:

Trip Planner

Search our weather history database for the weather conditions in past years. The results will help you decide how hot, cold, wet, or windy it might be!

Date:

Astronomy

Dec. 20, 2013 Rise Set
Actual Time 7:59 AM EST 5:11 PM EST
Civil Twilight 7:28 AM EST 5:42 PM EST
Nautical Twilight 6:53 AM EST 6:17 PM EST
Astronomical Twilight 6:19 AM EST 6:51 PM EST
Moon 8:33 PM EST (12/20) 9:51 AM EST (12/20)
Length of Visible Light 10h 14m
Length of Day
9h 11m
Waning Gibbous, 90% of the Moon is Illuminated
Dec 20
Waning Gibbous
Dec 25
Last Quarter
Jan 1
New
Jan 7
First Quarter
Jan 15
Full

Hourly Weather History & Observations

Time (EST) Temp. Windchill Dew Point Humidity Pressure Visibility Wind Dir Wind Speed Gust Speed Precip Events Conditions
12:53 AM 42.1 °F 38.4 °F 34.0 °F 73% 29.88 in 10.0 mi South 5.8 mph - N/A   Overcast
1:53 AM 42.1 °F 38.4 °F 36.0 °F 79% 29.86 in 9.0 mi South 5.8 mph - 0.00 in   Overcast
2:53 AM 41.0 °F 38.0 °F 37.0 °F 86% 29.87 in 5.0 mi SSW 4.6 mph - 0.00 in   Overcast
3:53 AM 42.1 °F 37.1 °F 37.9 °F 85% 29.85 in 6.0 mi SSW 8.1 mph - N/A   Overcast
4:13 AM 42.8 °F 38.0 °F 37.4 °F 81% 29.84 in 5.0 mi SSW 8.1 mph - 0.00 in Rain Light Rain
4:20 AM 42.8 °F 37.5 °F 37.4 °F 81% 29.83 in 4.0 mi SSW 9.2 mph - 0.00 in Rain Light Rain
4:53 AM 42.1 °F 37.1 °F 39.0 °F 89% 29.83 in 3.0 mi SSW 8.1 mph - 0.01 in Rain Light Rain
5:24 AM 42.8 °F 37.5 °F 39.2 °F 87% 29.81 in 2.5 mi SSW 9.2 mph - 0.00 in Rain Light Rain
5:41 AM 42.8 °F 37.0 °F 39.2 °F 87% 29.80 in 4.0 mi SSW 10.4 mph - 0.00 in   Overcast
5:53 AM 42.1 °F 36.6 °F 39.9 °F 92% 29.82 in 3.0 mi SSW 9.2 mph - 0.00 in   Overcast
5:55 AM 42.8 °F 38.0 °F 39.2 °F 87% 29.80 in 2.5 mi SSW 8.1 mph - N/A   Overcast
6:05 AM 42.8 °F 38.0 °F 39.2 °F 87% 29.80 in 3.0 mi SSW 8.1 mph - 0.00 in Rain Light Rain
6:53 AM 42.1 °F 36.6 °F 39.9 °F 92% 29.82 in 4.0 mi SSW 9.2 mph - 0.00 in Rain Light Rain
7:53 AM 42.1 °F 36.6 °F 39.0 °F 89% 29.82 in 5.0 mi SSW 9.2 mph - 0.01 in Rain Light Rain
8:53 AM 42.1 °F 37.7 °F 39.9 °F 92% 29.82 in 4.0 mi SSW 6.9 mph - 0.00 in   Overcast
9:53 AM 43.0 °F 38.8 °F 41.0 °F 93% 29.83 in 4.0 mi SSW 6.9 mph - 0.00 in   Overcast
10:17 AM 42.8 °F 39.3 °F 41.0 °F 93% 29.82 in 2.0 mi SSW 5.8 mph - 0.01 in Rain Light Rain
10:24 AM 42.8 °F 40.1 °F 41.0 °F 93% 29.82 in 1.0 mi SSW 4.6 mph - 0.02 in Rain Light Rain
10:34 AM 44.6 °F 43.1 °F 41.0 °F 87% 29.82 in 2.5 mi Variable 3.5 mph - 0.02 in Rain Light Rain
10:43 AM 44.6 °F 40.7 °F 41.0 °F 87% 29.82 in 3.0 mi SSW 6.9 mph - 0.02 in   Overcast
10:53 AM 44.1 °F 40.1 °F 41.0 °F 89% 29.83 in 2.5 mi SSW 6.9 mph - 0.02 in Rain Light Rain
11:06 AM 44.6 °F 40.7 °F 42.8 °F 93% 29.82 in 3.0 mi SSW 6.9 mph - 0.01 in Rain Light Rain
11:14 AM 44.6 °F 40.7 °F 42.8 °F 93% 29.82 in 2.0 mi SSW 6.9 mph - 0.02 in Rain Light Rain
11:41 AM 44.6 °F 41.4 °F 42.8 °F 93% 29.81 in 2.5 mi SSW 5.8 mph - 0.04 in Rain Light Rain
11:53 AM 45.0 °F 41.8 °F 43.0 °F 93% 29.81 in 2.5 mi SSW 5.8 mph - 0.04 in Rain Light Rain
12:04 PM 44.6 °F 39.7 °F 42.8 °F 93% 29.79 in 3.0 mi SSW 9.2 mph - N/A   Overcast
12:17 PM 44.6 °F 39.2 °F 42.8 °F 93% 29.78 in 2.5 mi SSW 10.4 mph - 0.00 in Rain Light Rain
12:23 PM 44.6 °F 39.2 °F 42.8 °F 93% 29.78 in 1.8 mi SSW 10.4 mph - 0.00 in Rain Light Rain
12:45 PM 46.4 °F 42.4 °F 44.6 °F 93% 29.77 in 1.5 mi SSW 8.1 mph - 0.00 in Rain Light Rain
12:53 PM 46.0 °F 41.4 °F 44.1 °F 93% 29.77 in 1.5 mi SSW 9.2 mph - 0.01 in Rain Light Rain
1:13 PM 46.4 °F 41.9 °F 44.6 °F 93% 29.76 in 2.5 mi SSW 9.2 mph - 0.00 in   Overcast
1:20 PM 46.4 °F 41.9 °F 44.6 °F 93% 29.75 in 4.0 mi SSW 9.2 mph - 0.00 in   Overcast
1:50 PM 46.4 °F 43.5 °F 44.6 °F 93% 29.74 in 2.5 mi SSW 5.8 mph - 0.00 in Rain Light Rain
1:53 PM 46.9 °F - 45.0 °F 93% 29.75 in 2.0 mi South 5.8 mph - 0.00 in Rain Light Rain
2:03 PM 46.4 °F 42.4 °F 44.6 °F 93% 29.74 in 3.0 mi South 8.1 mph - 0.00 in Rain Light Rain
2:21 PM 48.2 °F - 44.6 °F 87% 29.73 in 2.5 mi SSW 10.4 mph - 0.00 in   Overcast
2:29 PM 48.2 °F - 44.6 °F 87% 29.73 in 3.0 mi SSW 6.9 mph 16.1 mph 0.00 in   Overcast
2:37 PM 48.2 °F - 46.4 °F 93% 29.73 in 2.5 mi SSW 9.2 mph - 0.00 in   Overcast
2:53 PM 48.0 °F - 46.0 °F 93% 29.74 in 2.5 mi SSW 9.2 mph - 0.01 in Rain Light Rain
3:08 PM 48.2 °F - 46.4 °F 93% 29.72 in 1.8 mi SSW 8.1 mph - 0.01 in Rain Light Rain
3:12 PM 48.2 °F - 46.4 °F 93% 29.72 in 2.5 mi SSW 10.4 mph - 0.01 in Rain Light Rain
3:25 PM 48.2 °F - 46.4 °F 93% 29.72 in 1.8 mi SSW 9.2 mph - 0.03 in Rain Light Rain
3:36 PM 48.2 °F - 46.4 °F 93% 29.73 in 2.5 mi SSW 9.2 mph - 0.03 in Rain Light Rain
3:47 PM 48.2 °F - 46.4 °F 93% 29.74 in 2.0 mi SSW 10.4 mph - 0.03 in   Overcast
3:53 PM 50.0 °F - 46.9 °F 89% 29.75 in 1.5 mi SSW 10.4 mph - 0.03 in   Overcast
4:53 PM 51.1 °F - 48.9 °F 92% 29.74 in 1.8 mi SSW 10.4 mph - N/A   Overcast
5:06 PM 51.8 °F - 48.2 °F 88% 29.74 in 2.5 mi SSW 12.7 mph 19.6 mph N/A   Overcast
5:30 PM 51.8 °F - 50.0 °F 94% 29.74 in 3.0 mi SSW 12.7 mph - N/A   Overcast
5:40 PM 51.8 °F - 50.0 °F 94% 29.73 in 2.5 mi SSW 11.5 mph - N/A   Overcast
5:53 PM 52.0 °F - 50.0 °F 93% 29.75 in 2.5 mi SSW 12.7 mph - N/A   Overcast
6:30 PM 53.6 °F - 51.8 °F 94% 29.74 in 3.0 mi SSW 15.0 mph 20.7 mph 0.01 in   Overcast
6:53 PM 53.1 °F - 51.1 °F 93% 29.75 in 4.0 mi SSW 15.0 mph - 0.01 in   Overcast
7:53 PM 53.1 °F - 51.1 °F 93% 29.75 in 4.0 mi South 10.4 mph - 0.00 in   Overcast
8:53 PM 53.1 °F - 51.1 °F 93% 29.75 in 4.0 mi SSW 8.1 mph - 0.01 in   Overcast
9:02 PM 53.6 °F - 51.8 °F 94% 29.75 in 4.0 mi Variable 5.8 mph - N/A   Overcast
9:09 PM 53.6 °F - 51.8 °F 94% 29.74 in 4.0 mi SW 4.6 mph - N/A   Overcast
9:42 PM 55.4 °F - 51.8 °F 88% 29.73 in 5.0 mi SSW 10.4 mph - N/A   Overcast
9:53 PM 55.9 °F - 52.0 °F 87% 29.74 in 5.0 mi SSW 10.4 mph - N/A   Overcast
10:14 PM 55.4 °F - 51.8 °F 88% 29.74 in 4.0 mi SSW 9.2 mph - N/A   Overcast
10:29 PM 55.4 °F - 51.8 °F 88% 29.73 in 4.0 mi SSW 10.4 mph - N/A   Overcast
10:53 PM 55.9 °F - 52.0 °F 87% 29.74 in 5.0 mi SSW 10.4 mph - N/A   Overcast
11:12 PM 55.4 °F - 53.6 °F 94% 29.73 in 6.0 mi SSW 11.5 mph - N/A   Overcast
11:22 PM 55.4 °F - 53.6 °F 94% 29.73 in 6.0 mi SSW 10.4 mph - N/A   Overcast
11:53 PM 55.9 °F - 53.1 °F 90% 29.73 in 6.0 mi SSW 10.4 mph - N/A   Overcast